Regional Weather Roundup
Issued by NWS

Home | Current Version | Previous Version | Graphics & Text | Print | Product List | Glossary On
Versions: 1 2 3 4 5 6 7 8 9 10 11 12 13 14 15 16 17 18 19 20 21 22 23 24 25 26 27 28 29 30 31 32 33 34 35 36 37 38 39 40 41 42 43 44 45 46 47 48 49 50
000
ASUS43 KDTX 281810
RWRMI
MICHIGAN HOURLY REGIONAL WEATHER ROUNDUP
NATIONAL WEATHER SERVICE DETROIT/PONTIAC MI
200 PM EDT THU AUG 28 2014

NOTE: "FAIR" INDICATES FEW OR NO CLOUDS BELOW 12,000 FEET WITH NO
SIGNIFICANT WEATHER AND/OR OBSTRUCTION TO VISIBILITY.

MIZ047>049-052>055-059>063-066>070-074>076-081>083-281900-
SOUTHEAST LOWER MICHIGAN

CITY           SKY/WX    TMP DP  RH WIND       PRES   REMARKS
ADRIAN         PTSUNNY   73  57  57 VRB3      30.15F
6HR MIN TEMP:  63; 6HR MAX TEMP:  74;

ALMA           SUNNY     67  44  42 E5        30.18F
ANN ARBOR      SUNNY     73  54  51 NE6       30.15F
BAD AXE        PTSUNNY   68  50  52 CALM      30.18S
6HR MIN TEMP:  52; 6HR MAX TEMP:  68;

DETROIT CITY   SUNNY     73  46  38 CALM      30.16F
6HR MIN TEMP:  63; 6HR MAX TEMP:  73;

DETROIT        MOSUNNY   72  54  53 VRB5      30.15F
6HR MIN TEMP:  62; 6HR MAX TEMP:  73;

FLINT          SUNNY     71  50  47 E7        30.17F
6HR MIN TEMP:  59; 6HR MAX TEMP:  72;

GROSSE ILE     SUNNY     72  54  53 NE9       30.14F
HILLSDALE      MOSUNNY   73  56  54 E5        30.15F
HOWELL         SUNNY     67  49  50 NW5       30.17S
6HR MIN TEMP:  56; 6HR MAX TEMP:  67;


CITY           SKY/WX    TMP DP  RH WIND       PRES   REMARKS
JACKSON        SUNNY     74  55  51 N5        30.15F
6HR MIN TEMP:  62; 6HR MAX TEMP:  74;

LAMBERTVILLE   PTSUNNY   72  57  60 SE3       30.15F
LANSING        SUNNY     68  48  48 CALM      30.17F
6HR MIN TEMP:  55; 6HR MAX TEMP:  69; 6HR PCP: TRACE;

LAPEER         NOT AVBL
MASON          SUNNY     68  53  58 N3        30.16F
MONROE         PTSUNNY   73  57  56 S7        30.14S
MT. CLEMENS    MOSUNNY   70  52  52 VRB3      30.15F
6HR MIN TEMP:  58; 6HR MAX TEMP:  70;

PONTIAC        PTSUNNY   69  49  48 VRB6      30.16F
6HR MIN TEMP:  57; 6HR MAX TEMP:  69; 6HR PCP: TRACE;

PORT HOPE        N/A     65  55  70 N5        30.17F
6HR MIN TEMP:  62; 6HR MAX TEMP:  66;

PORT HURON     MOSUNNY   68  54  60 NE8       30.17S
TRI CITIES     PTSUNNY   68  51  54 NE3       30.18F
6HR MIN TEMP:  53; 6HR MAX TEMP:  69;

YPSILANTI      SUNNY     75  53  46 NE3       30.16F
6HR MIN TEMP:  64; 6HR MAX TEMP:  76;

$$
MIZ043>046-050>051-056>058-064>065-071>073-077>080-281900-
SOUTHWEST LOWER MICHIGAN

CITY           SKY/WX    TMP DP  RH WIND       PRES   REMARKS
BATTLE CREEK   CLOUDY    71  56  58 NE7       30.15F
6HR MIN TEMP:  58; 6HR MAX TEMP:  72;

BENTON HARBOR  MOSUNNY   76  58  53 VRB3      30.12F
6HR MIN TEMP:  57; 6HR MAX TEMP:  76;

BIG RAPIDS     SUNNY     69  53  56 CALM      30.16F
6HR MIN TEMP:  47; 6HR MAX TEMP:  69;

COLDWATER      MOSUNNY   74  57  55 E5        30.13F
6HR MIN TEMP:  59; 6HR MAX TEMP:  75;

HOLLAND        SUNNY     73  55  53 E6        30.15F
6HR MIN TEMP:  57; 6HR MAX TEMP:  74;

GRAND RAPIDS   MOSUNNY   71  55  56 E9        30.16F
6HR MIN TEMP:  55; 6HR MAX TEMP:  72;

KALAMAZOO      PTSUNNY   73  57  57 VRB5      30.14F
6HR MIN TEMP:  57; 6HR MAX TEMP:  73;

MARSHALL       PTSUNNY   73  56  56 E5        30.14F
MUSKEGON       MOSUNNY   73  50  44 E8        30.15F
6HR MIN TEMP:  54; 6HR MAX TEMP:  75;

$$
MIZ016>042-281900-
NORTHERN LOWER MICHIGAN

CITY           SKY/WX    TMP DP  RH WIND       PRES   REMARKS
ALPENA         PTSUNNY   67  48  50 NW8       30.17F
6HR MIN TEMP:  48; 6HR MAX TEMP:  69;

BEAVER ISLAND  SUNNY     67  49  52 CALM      30.19S
6HR MIN TEMP:  53; 6HR MAX TEMP:  68;

BELLAIRE       PTSUNNY   68  47  47 NE5       30.17F
6HR MIN TEMP:  45; 6HR MAX TEMP:  69;

CADILLAC       MOSUNNY   68  51  54 E6        30.17F
CHARLEVOIX     MOSUNNY   65  49  55 N7        30.21F
6HR MIN TEMP:  51; 6HR MAX TEMP:  66;

FRANKFORT      CLOUDY    71  50  46 SE3       30.16S
GAYLORD        PTSUNNY   64  45  49 NW5       30.18F
6HR MIN TEMP:  44; 6HR MAX TEMP:  67;

GRAYLING       CLOUDY    69  48  47 NW5       30.18F
HARBOR SPRINGS SUNNY     67  51  56 SW8       30.18S
HOUGHTON LAKE  SUNNY     68  48  48 SW6       30.18F
6HR MIN TEMP:  42; 6HR MAX TEMP:  68;

MANISTEE       MOSUNNY   70  48  46 SW5       30.17S
OSCODA         SUNNY     67  53  59 E9G16     30.17S
PELLSTON       PTSUNNY   68  46  45 SW3       30.18S
6HR MIN TEMP:  44; 6HR MAX TEMP:  69;

TRAVERSE CITY  MOSUNNY   69  47  45 N9        30.16F
6HR MIN TEMP:  50; 6HR MAX TEMP:  69;

$$
MIZ007>008-015-281900-
EASTERN UPPER MICHIGAN

CITY           SKY/WX    TMP DP  RH WIND       PRES   REMARKS
KINROSS        MOSUNNY   64  46  52 N6        30.17F
6HR MIN TEMP:  45; 6HR MAX TEMP:  66;

MACKINAC ISLAN PTSUNNY   64  47  55 S5        30.17F
6HR MIN TEMP:  50; 6HR MAX TEMP:  64;

NEWBERRY       SUNNY     64  46  51 CALM      30.17F
S. S. MARIE    MOSUNNY   66  48  52 W8        30.16S
6HR MIN TEMP:  52; 6HR MAX TEMP:  67;

$$
MIZ004>006-011>014-085-281900-
CENTRAL UPPER MICHIGAN

CITY           SKY/WX    TMP DP  RH WIND       PRES   REMARKS
MANISTIQUE     CLOUDY    65  49  55 S6        30.17F
ESCANABA       CLOUDY    64  52  63 E10       30.16F
6HR MIN TEMP:  54; 6HR MAX TEMP:  64;

MENOMINEE      CLOUDY    64  54  68 S10       30.15S
6HR MIN TEMP:  55; 6HR MAX TEMP:  66;

SAWYER-GWINN   CLOUDY    66  48  52 S6        30.16F
$$
MIZ001>003-009>011-084-281900-
WESTERN UPPER MICHIGAN

CITY           SKY/WX    TMP DP  RH WIND       PRES   REMARKS
IRON MOUNTAIN  MOSUNNY   68  49  50 CALM      30.13F
6HR MIN TEMP:  51; 6HR MAX TEMP:  70;

HOUGHTON       SUNNY     68  47  46 S8        30.13F
6HR MIN TEMP:  48; 6HR MAX TEMP:  68;

COPPER HARBOR    N/A     67  46  47 SW8       30.13F
6HR MIN TEMP:  54; 6HR MAX TEMP:  67;

$$

ABBREVIATIONS USED IN REMARKS
   TC - TEMPERATURE IN CELSIUS
  WCI - WIND CHILL INDEX
   HX - HEAT INDEX
  VSB - VISIBILITY




USA.gov is the U.S. government's official web portal to all federal, state and local government web resources and services.